HS7AT-11 Weather Reports


Display with metric or nautical units.
time (UTC)temp
F
wind
direction
speed
MPH
gust
MPH
rain 1hr
in
rain 24hr
in
rain mn
in
humidity
%
barometer
mb
20210726033203 101 112 1.0 2.0 0.00 0.00 0.00 51 1013.6
20210726032858 101 112 1.0 1.0 0.00 0.00 0.00 51 1013.5
20210726032553 101 112 0.0 3.0 0.00 0.00 0.00 51 1013.6
20210726032248 101 112 1.0 3.0 0.00 0.00 0.00 51 1013.7
20210726031943 102 112 0.0 4.0 0.00 0.00 0.00 51 1013.7
20210726031638 102 112 2.0 3.0 0.00 0.00 0.00 52 1013.6
20210726031333 101 112 0.0 3.0 0.00 0.00 0.00 53 1013.7
20210726031027 101 112 1.0 3.0 0.00 0.00 0.00 54 1013.6
20210726030722 101 112 2.0 3.0 0.00 0.00 0.00 54 1013.7
20210726030416 100 112 1.0 3.0 0.00 0.00 0.00 55 1013.6
20210726030111 99 112 1.0 2.0 0.00 0.00 0.00 56 1013.5
20210726025806 99 112 2.0 4.0 0.00 0.00 0.00 57 1013.5
20210726025501 98 112 1.0 3.0 0.00 0.00 0.00 58 1013.4
20210726025156 97 112 0.0 3.0 0.00 0.00 0.00 59 1013.5
20210726024851 97 112 2.0 2.0 0.00 0.00 0.00 60 1013.5
20210726024546 96 112 1.0 2.0 0.00 0.00 0.00 60 1013.5
20210726024240 96 112 1.0 2.0 0.00 0.00 0.00 60 1013.5
20210726023935 96 112 1.0 4.0 0.00 0.00 0.00 60 1013.5
20210726023630 96 112 1.0 3.0 0.00 0.00 0.00 61 1013.4
20210726023325 96 112 2.0 3.0 0.00 0.00 0.00 61 1013.3
20210726023020 96 112 1.0 3.0 0.00 0.00 0.00 62 1013.3
20210726022715 95 112 1.0 3.0 0.00 0.00 0.00 64 1013.2
20210726022410 95 112 0.0 3.0 0.00 0.00 0.00 64 1013.3
20210726022105 94 112 1.0 3.0 0.00 0.00 0.00 65 1013.3
20210726021800 94 112 2.0 3.0 0.00 0.00 0.00 66 1013.3
20210726021454 93 112 1.0 3.0 0.00 0.00 0.00 67 1013.4
20210726021149 93 112 2.0 6.0 0.00 0.00 0.00 67 1013.4
20210726020844 93 112 1.0 6.0 0.00 0.00 0.00 68 1013.4
20210726020539 92 112 0.0 2.0 0.00 0.00 0.00 68 1013.4
20210726020234 92 112 1.0 3.0 0.00 0.00 0.00 69 1013.3
20210726015929 92 112 2.0 4.0 0.00 0.00 0.00 70 1013.3
20210726015624 91 112 4.0 4.0 0.00 0.00 0.00 71 1013.2
20210726015319 90 112 1.0 4.0 0.00 0.00 0.00 72 1013.2
20210726015013 90 112 2.0 2.0 0.00 0.00 0.00 72 1013.1
20210726014708 90 112 0.0 3.0 0.00 0.00 0.00 73 1013.2
20210726014403 90 112 0.0 2.0 0.00 0.00 0.00 74 1013.0
20210726014058 89 112 0.0 1.0 0.00 0.00 0.00 75 1013.0
20210726013753 89 112 1.0 2.0 0.00 0.00 0.00 76 1013.0
20210726013448 88 112 1.0 2.0 0.00 0.00 0.00 77 1013.0
20210726013142 88 112 1.0 3.0 0.00 0.00 0.00 78 1013.1
20210726012837 87 112 3.0 3.0 0.00 0.00 0.00 78 1012.9
20210726012532 86 112 0.0 2.0 0.00 0.00 0.00 79 1013.0
20210726012226 86 112 1.0 1.0 0.00 0.00 0.00 80 1012.9
20210726011921 85 112 0.0 3.0 0.00 0.00 0.00 80 1013.0
20210726011616 85 112 1.0 1.0 0.00 0.00 0.00 81 1013.0
20210726011311 84 112 0.0 1.0 0.00 0.00 0.00 81 1013.0
20210726011006 83 112 1.0 2.0 0.00 0.00 0.00 82 1012.9
20210726010701 83 112 1.0 1.0 0.00 0.00 0.00 82 1012.9
20210726010356 82 112 0.0 1.0 0.00 0.00 0.00 82 1012.8
20210726010051 82 112 0.0 1.0 0.00 0.00 0.00 82 1012.9
20210726005746 81 112 0.0 1.0 0.00 0.00 0.00 82 1012.6
20210726005441 81 112 0.0 0.0 0.00 0.00 0.00 82 1012.7
20210726005135 81 112 0.0 1.0 0.00 0.00 0.00 82 1012.6
20210726004830 81 112 0.0 1.0 0.00 0.00 0.00 82 1012.6
20210726004525 80 112 1.0 1.0 0.00 0.00 0.00 82 1012.6
20210726004220 80 112 0.0 1.0 0.00 0.00 0.00 82 1012.5
20210726003915 80 112 1.0 1.0 0.00 0.00 0.00 82 1012.6
20210726003610 80 112 0.0 1.0 0.00 0.00 0.00 82 1012.4
20210726003305 79 112 0.0 1.0 0.00 0.00 0.00 82 1012.3
20210726003000 79 112 0.0 1.0 0.00 0.00 0.00 82 1012.3
20210726002654 79 112 0.0 1.0 0.00 0.00 0.00 82 1012.3
20210726002349 79 112 1.0 1.0 0.00 0.00 0.00 82 1012.3
20210726002044 79 112 1.0 1.0 0.00 0.00 0.00 82 1012.4
20210726001739 78 112 1.0 1.0 0.00 0.00 0.00 82 1012.2
20210726001434 78 112 1.0 1.0 0.00 0.00 0.00 82 1012.2
20210726001129 78 112 1.0 1.0 0.00 0.00 0.00 82 1012.3
20210726000824 78 112 1.0 1.0 0.00 0.00 0.00 82 1012.2
20210726000519 78 112 0.0 0.0 0.00 0.00 0.00 82 1012.2
20210726000213 78 112 0.0 1.0 0.00 0.00 0.00 82 1012.3
20210725235907 78 112 0.0 1.0 0.00 0.00 0.00 82 1012.2
20210725235602 77 112 0.0 0.0 0.00 0.00 0.00 82 1012.2
20210725235257 77 112 0.0 0.0 0.00 0.00 0.00 82 1012.2
20210725234952 77 112 0.0 1.0 0.00 0.00 0.00 82 1012.0
20210725234647 77 112 1.0 1.0 0.00 0.00 0.00 82 1012.0
20210725234342 77 112 0.0 1.0 0.00 0.00 0.00 82 1012.0
20210725234037 77 112 0.0 1.0 0.00 0.00 0.00 82 1012.0
20210725233732 77 112 0.0 0.0 0.00 0.00 0.00 81 1012.0
20210725233118 77 112 0.0 0.0 0.00 0.00 0.00 82 1011.8
20210725232813 77 112 0.0 0.0 0.00 0.00 0.00 81 1011.8
20210725232508 77 112 0.0 0.0 0.00 0.00 0.00 81 1011.9
20210725232203 76 112 0.0 0.0 0.00 0.00 0.00 81 1012.0
20210725231858 76 112 0.0 0.0 0.00 0.00 0.00 81 1012.0
20210725231553 76 112 0.0 0.0 0.00 0.00 0.00 81 1012.0
20210725231248 76 112 0.0 0.0 0.00 0.00 0.00 81 1012.0
20210725230943 76 112 0.0 0.0 0.00 0.00 0.00 81 1011.8
20210725230638 76 112 0.0 0.0 0.00 0.00 0.00 81 1011.9
20210725230332 76 112 0.0 0.0 0.00 0.00 0.00 81 1011.9
20210725230027 76 112 0.0 0.0 0.00 0.00 0.00 81 1011.9
20210725225722 76 112 0.0 0.0 0.00 0.00 0.00 81 1011.9
20210725225417 76 112 0.0 0.0 0.00 0.00 0.00 81 1011.9
20210725225112 76 112 0.0 0.0 0.00 0.00 0.00 81 1011.9
20210725224807 76 112 0.0 0.0 0.00 0.00 0.00 81 1011.9
20210725224502 76 112 0.0 0.0 0.00 0.00 0.00 81 1011.9
20210725224157 76 112 0.0 0.0 0.00 0.00 0.00 81 1011.9
20210725223852 76 112 0.0 0.0 0.00 0.00 0.00 81 1011.9
20210725223546 76 112 0.0 0.0 0.00 0.00 0.00 81 1011.9
20210725223241 76 112 0.0 0.0 0.00 0.00 0.00 81 1011.8
20210725222936 76 112 0.0 0.0 0.00 0.00 0.00 81 1011.8
20210725222630 76 112 0.0 0.0 0.00 0.00 0.00 81 1011.9
20210725222325 76 112 0.0 0.0 0.00 0.00 0.00 80 1011.8
20210725222020 76 112 0.0 0.0 0.00 0.00 0.00 81 1011.9
20210725221715 76 112 0.0 0.0 0.00 0.00 0.00 80 1011.8
20210725221410 77 112 0.0 0.0 0.00 0.00 0.00 80 1011.9
20210725221105 77 112 0.0 0.0 0.00 0.00 0.00 80 1011.9
20210725220759 77 112 0.0 0.0 0.00 0.00 0.00 80 1011.9
20210725220454 77 112 0.0 0.0 0.00 0.00 0.00 80 1011.9
20210725220149 77 112 0.0 0.0 0.00 0.00 0.00 80 1012.0
20210725215844 77 112 0.0 0.0 0.00 0.00 0.00 80 1012.0
20210725215539 77 112 0.0 0.0 0.00 0.00 0.00 80 1011.9
20210725215234 77 112 0.0 0.0 0.00 0.00 0.00 80 1011.9
20210725214929 77 112 0.0 0.0 0.00 0.00 0.00 80 1011.8
20210725214624 77 112 0.0 0.0 0.00 0.00 0.00 80 1011.8
20210725214010 77 112 0.0 0.0 0.00 0.00 0.00 80 1011.9
20210725213705 77 112 0.0 0.0 0.00 0.00 0.00 80 1011.9
20210725213400 77 112 0.0 0.0 0.00 0.00 0.00 80 1011.9
20210725213055 77 112 0.0 0.0 0.00 0.00 0.00 80 1011.9
20210725212750 77 112 0.0 0.0 0.00 0.00 0.00 80 1011.9
20210725212445 77 112 0.0 0.0 0.00 0.00 0.00 80 1011.9
20210725212140 77 112 0.0 0.0 0.00 0.00 0.00 80 1012.0
20210725211835 77 112 0.0 0.0 0.00 0.00 0.00 80 1012.0
20210725211529 77 112 0.0 0.0 0.00 0.00 0.00 80 1012.0
20210725211224 77 112 0.0 0.0 0.00 0.00 0.00 80 1012.1
20210725210919 77 112 0.0 0.0 0.00 0.00 0.00 80 1012.1
20210725210614 77 112 0.0 0.0 0.00 0.00 0.00 80 1012.2
20210725210309 77 112 0.0 0.0 0.00 0.00 0.00 80 1012.1
20210725210004 77 112 0.0 0.0 0.00 0.00 0.00 80 1012.1
20210725205658 77 112 0.0 0.0 0.00 0.00 0.00 80 1012.1
20210725205353 77 112 0.0 0.0 0.00 0.00 0.00 80 1012.1
20210725205048 77 112 0.0 0.0 0.00 0.00 0.00 80 1012.0
20210725204742 77 112 0.0 0.0 0.00 0.00 0.00 80 1012.0
20210725204437 77 112 0.0 0.0 0.00 0.00 0.00 80 1012.0
20210725204132 77 112 0.0 0.0 0.00 0.00 0.00 80 1012.0
20210725203827 77 112 0.0 0.0 0.00 0.00 0.00 80 1012.1
20210725203522 77 112 0.0 0.0 0.00 0.00 0.00 80 1012.2
20210725203217 77 112 0.0 0.0 0.00 0.00 0.00 80 1012.1
20210725202912 77 112 0.0 0.0 0.00 0.00 0.00 80 1012.2
20210725202607 77 112 0.0 0.0 0.00 0.00 0.00 80 1012.1
20210725202305 77 112 0.0 0.0 0.00 0.00 0.00 80 1012.1
20210725201957 77 112 0.0 0.0 0.00 0.00 0.00 80 1012.2
20210725201651 77 112 0.0 0.0 0.00 0.00 0.00 80 1012.1
20210725201346 77 112 0.0 0.0 0.00 0.00 0.00 80 1012.2
20210725201041 77 112 0.0 0.0 0.00 0.00 0.00 80 1012.3
20210725200736 77 112 0.0 0.0 0.00 0.00 0.00 80 1012.3
20210725200431 77 112 0.0 0.0 0.00 0.00 0.00 80 1012.3
20210725200126 77 112 0.0 0.0 0.00 0.00 0.00 80 1012.3
20210725195821 77 112 0.0 0.0 0.00 0.00 0.00 80 1012.4
20210725195516 77 112 0.0 0.0 0.00 0.00 0.00 80 1012.5
20210725195210 77 112 0.0 0.0 0.00 0.00 0.00 80 1012.4
20210725194905 77 112 0.0 0.0 0.00 0.00 0.00 79 1012.5
20210725194600 77 112 0.0 0.0 0.00 0.00 0.00 79 1012.5
20210725194255 77 112 0.0 0.0 0.00 0.00 0.00 79 1012.4
20210725193950 77 112 0.0 0.0 0.00 0.00 0.00 79 1012.5
20210725193645 77 112 0.0 0.0 0.00 0.00 0.00 79 1012.4
20210725193340 77 112 0.0 0.0 0.00 0.00 0.00 79 1012.6
20210725193035 77 112 0.0 0.0 0.00 0.00 0.00 79 1012.5
20210725192730 77 112 0.0 0.0 0.00 0.00 0.00 79 1012.7
20210725192424 77 112 0.0 0.0 0.00 0.00 0.00 79 1012.6
20210725192118 77 112 0.0 0.0 0.00 0.00 0.00 79 1012.7
20210725191813 77 112 0.0 0.0 0.00 0.00 0.00 79 1012.8
20210725191508 77 112 0.0 0.0 0.00 0.00 0.00 79 1012.8
20210725191203 77 112 0.0 0.0 0.00 0.00 0.00 79 1012.9
20210725190858 77 112 0.0 0.0 0.00 0.00 0.00 79 1013.0
20210725190553 77 112 0.0 0.0 0.00 0.00 0.00 79 1013.0
20210725190248 77 112 0.0 0.0 0.00 0.00 0.00 79 1013.1
20210725185943 77 112 0.0 0.0 0.00 0.00 0.00 79 1013.1
20210725185637 77 112 0.0 0.0 0.00 0.00 0.00 78 1013.1
20210725185332 77 112 0.0 0.0 0.00 0.00 0.00 78 1013.2
20210725185027 77 112 0.0 0.0 0.00 0.00 0.00 78 1013.3
20210725184722 77 112 0.0 0.0 0.00 0.00 0.00 78 1013.4
20210725184417 77 112 0.0 0.0 0.00 0.00 0.00 78 1013.4
20210725184112 77 112 0.0 0.0 0.00 0.00 0.00 78 1013.5
20210725183807 77 112 0.0 0.0 0.00 0.00 0.00 78 1013.6
20210725183502 77 112 0.0 0.0 0.00 0.00 0.00 78 1013.6
20210725183157 77 112 0.0 0.0 0.00 0.00 0.00 78 1013.7
20210725182851 77 112 0.0 0.0 0.00 0.00 0.00 77 1013.7
20210725182546 77 112 0.0 0.0 0.00 0.00 0.00 77 1013.6
20210725182241 77 112 0.0 0.0 0.00 0.00 0.00 77 1013.7
20210725181936 77 112 0.0 0.0 0.00 0.00 0.00 77 1013.7
20210725181631 77 112 0.0 0.0 0.00 0.00 0.00 77 1013.8
20210725181326 77 112 0.0 0.0 0.00 0.00 0.00 77 1013.8
20210725181021 77 112 0.0 0.0 0.00 0.00 0.00 77 1013.9
20210725180716 77 112 0.0 0.0 0.00 0.00 0.00 77 1013.9
20210725180411 77 112 0.0 0.0 0.00 0.00 0.00 77 1013.9
20210725180105 77 112 0.0 0.0 0.00 0.00 0.00 77 1013.9
20210725175800 77 112 0.0 0.0 0.00 0.00 0.00 77 1014.1
20210725175455 77 112 0.0 0.0 0.00 0.00 0.00 77 1014.1
20210725175150 77 112 0.0 0.0 0.00 0.00 0.00 77 1014.2
20210725174844 77 112 0.0 0.0 0.00 0.00 0.00 77 1014.2
20210725174539 77 112 0.0 0.0 0.00 0.00 0.00 77 1014.3
20210725174234 77 112 0.0 0.0 0.00 0.00 0.00 77 1014.4
20210725173929 77 112 0.0 0.0 0.00 0.00 0.00 76 1014.5
20210725173624 78 112 0.0 0.0 0.00 0.00 0.00 77 1014.6
20210725173318 78 112 0.0 0.0 0.00 0.00 0.00 77 1014.5
20210725172705 78 112 0.0 0.0 0.00 0.00 0.00 76 1014.6
20210725172400 78 112 0.0 0.0 0.00 0.00 0.00 76 1014.6
20210725172055 78 112 0.0 0.0 0.00 0.00 0.00 76 1014.5
20210725171750 78 112 0.0 0.0 0.00 0.00 0.00 76 1014.6
20210725171445 78 112 0.0 0.0 0.00 0.00 0.00 76 1014.6
20210725171140 78 112 0.0 0.0 0.00 0.00 0.00 76 1014.8
20210725170834 78 112 0.0 0.0 0.00 0.00 0.00 76 1014.7
20210725170529 78 112 0.0 0.0 0.00 0.00 0.00 76 1014.6
20210725170224 78 112 0.0 0.0 0.00 0.00 0.00 76 1014.7
20210725165919 78 112 0.0 0.0 0.00 0.00 0.00 76 1014.8
20210725165614 78 112 0.0 0.0 0.00 0.00 0.00 76 1014.8
20210725165309 78 112 0.0 0.0 0.00 0.00 0.00 76 1014.6
20210725165004 78 112 0.0 0.0 0.00 0.00 0.00 76 1014.7
20210725164659 78 112 0.0 0.0 0.00 0.00 0.00 76 1014.8
20210725164354 78 112 0.0 0.0 0.00 0.00 0.00 76 1014.7
20210725164049 78 112 0.0 0.0 0.00 0.00 0.00 76 1014.7
20210725163743 78 112 0.0 0.0 0.00 0.00 0.00 76 1014.7
20210725163438 78 112 0.0 0.0 0.00 0.00 0.00 75 1014.8
20210725163133 78 112 0.0 0.0 0.00 0.00 0.00 76 1014.7
20210725162828 78 112 0.0 0.0 0.00 0.00 0.00 76 1014.7
20210725162523 78 112 0.0 0.0 0.00 0.00 0.00 75 1014.7
20210725162218 78 112 0.0 0.0 0.00 0.00 0.00 75 1014.8
20210725161912 78 112 0.0 0.0 0.00 0.00 0.00 75 1014.7
20210725161607 79 112 0.0 0.0 0.00 0.00 0.00 75 1014.9
20210725161302 79 112 0.0 0.0 0.00 0.00 0.00 75 1014.9
20210725160956 79 112 0.0 0.0 0.00 0.00 0.00 75 1014.9
20210725160651 79 112 0.0 0.0 0.00 0.00 0.00 75 1014.9
20210725160346 79 112 0.0 0.0 0.00 0.00 0.00 75 1014.9
20210725160041 79 112 0.0 0.0 0.00 0.00 0.00 75 1014.9
20210725155736 79 112 0.0 0.0 0.00 0.00 0.00 75 1014.9
20210725155431 79 112 0.0 0.0 0.00 0.00 0.00 75 1014.9
20210725155126 79 112 0.0 0.0 0.00 0.00 0.00 74 1014.9
20210725154821 79 112 0.0 0.0 0.00 0.00 0.00 74 1014.9
20210725154515 79 112 0.0 0.0 0.00 0.00 0.00 74 1014.9
20210725154210 79 112 0.0 0.0 0.00 0.00 0.00 74 1014.7
20210725153905 79 112 0.0 0.0 0.00 0.00 0.00 74 1014.7
20210725153600 79 112 0.0 0.0 0.00 0.00 0.00 74 1014.7
20210725153255 79 112 0.0 0.0 0.00 0.00 0.00 74 1014.7
20210725152950 79 112 0.0 0.0 0.00 0.00 0.00 74 1014.7
20210725152645 79 112 0.0 0.0 0.00 0.00 0.00 74 1014.6
20210725152340 79 112 0.0 0.0 0.00 0.00 0.00 74 1014.6
20210725152035 79 112 0.0 0.0 0.00 0.00 0.00 74 1014.7
20210725151730 79 112 0.0 0.0 0.00 0.00 0.00 74 1014.6
20210725151424 79 112 0.0 0.0 0.00 0.00 0.00 74 1014.6
20210725151119 79 112 0.0 0.0 0.00 0.00 0.00 74 1014.6
20210725150814 79 112 0.0 0.0 0.00 0.00 0.00 73 1014.6
20210725150509 79 112 0.0 0.0 0.00 0.00 0.00 73 1014.5
20210725150204 80 112 0.0 0.0 0.00 0.00 0.00 74 1014.7
20210725145859 80 112 0.0 0.0 0.00 0.00 0.00 73 1014.5
20210725145554 80 112 0.0 0.0 0.00 0.00 0.00 73 1014.5
20210725145249 80 112 0.0 0.0 0.00 0.00 0.00 73 1014.5
20210725144943 80 112 0.0 0.0 0.00 0.00 0.00 73 1014.5
20210725144638 80 112 0.0 0.0 0.00 0.00 0.00 73 1014.5
20210725144332 80 112 0.0 0.0 0.00 0.00 0.00 73 1014.4
20210725144027 80 112 0.0 0.0 0.00 0.00 0.00 72 1014.5
20210725143722 80 112 0.0 0.0 0.00 0.00 0.00 73 1014.4
20210725143417 80 112 0.0 0.0 0.00 0.00 0.00 72 1014.3
20210725143112 80 112 0.0 0.0 0.00 0.00 0.00 72 1014.3
20210725142807 80 112 0.0 0.0 0.00 0.00 0.00 72 1014.4
20210725142502 80 112 0.0 0.0 0.00 0.00 0.00 72 1014.4
20210725142156 80 112 0.0 0.0 0.00 0.00 0.00 72 1014.4
20210725141851 80 112 0.0 0.0 0.00 0.00 0.00 72 1014.3
20210725141546 80 112 0.0 0.0 0.00 0.00 0.00 72 1014.2
20210725141241 80 112 0.0 0.0 0.00 0.00 0.00 72 1014.3
20210725140936 81 112 0.0 0.0 0.00 0.00 0.00 72 1014.2
20210725140631 81 112 0.0 0.0 0.00 0.00 0.00 72 1014.2
20210725140326 81 112 0.0 0.0 0.00 0.00 0.00 72 1014.2
20210725140021 81 112 0.0 0.0 0.00 0.00 0.00 71 1014.1
20210725135716 81 112 0.0 0.0 0.00 0.00 0.00 71 1014.1
20210725135410 81 112 0.0 0.0 0.00 0.00 0.00 71 1014.0
20210725135105 81 112 0.0 0.0 0.00 0.00 0.00 71 1013.9
20210725134455 81 112 0.0 0.0 0.00 0.00 0.00 71 1013.9
20210725134150 81 112 0.0 0.0 0.00 0.00 0.00 71 1013.8
20210725133845 81 112 0.0 0.0 0.00 0.00 0.00 70 1013.8
20210725133540 81 112 0.0 0.0 0.00 0.00 0.00 70 1013.7
20210725133235 81 112 0.0 0.0 0.00 0.00 0.00 70 1013.7
20210725132930 81 112 0.0 0.0 0.00 0.00 0.00 70 1013.7
20210725132624 81 112 0.0 0.0 0.00 0.00 0.00 70 1013.6
20210725132319 81 112 0.0 0.0 0.00 0.00 0.00 70 1013.6
20210725132014 81 112 0.0 0.0 0.00 0.00 0.00 70 1013.6
20210725131709 81 112 0.0 0.0 0.00 0.00 0.00 69 1013.6
20210725131403 81 112 0.0 0.0 0.00 0.00 0.00 69 1013.5
20210725131058 81 112 0.0 0.0 0.00 0.00 0.00 69 1013.5
20210725130753 82 112 0.0 0.0 0.00 0.00 0.00 69 1013.4
20210725130448 82 112 0.0 0.0 0.00 0.00 0.00 69 1013.4
20210725130143 82 112 0.0 0.0 0.00 0.00 0.00 69 1013.3
20210725125837 82 112 0.0 0.0 0.00 0.00 0.00 69 1013.2
20210725125532 82 112 0.0 0.0 0.00 0.00 0.00 68 1013.2
20210725125227 82 112 0.0 0.0 0.00 0.00 0.00 68 1013.1
20210725124922 82 112 0.0 0.0 0.00 0.00 0.00 68 1013.0
20210725124617 82 112 0.0 0.0 0.00 0.00 0.00 68 1013.0
20210725124312 82 112 0.0 0.0 0.00 0.00 0.00 68 1013.0
20210725124007 82 112 0.0 0.0 0.00 0.00 0.00 68 1012.9
20210725123702 83 112 0.0 0.0 0.00 0.00 0.00 68 1012.9
20210725123357 83 112 0.0 0.0 0.00 0.00 0.00 67 1012.8
20210725123051 83 112 0.0 0.0 0.00 0.00 0.00 67 1012.7
20210725122746 83 112 0.0 0.0 0.00 0.00 0.00 67 1012.7
20210725122441 83 112 0.0 0.0 0.00 0.00 0.00 67 1012.7
20210725122136 83 112 0.0 1.0 0.00 0.00 0.00 67 1012.5
20210725121831 83 112 0.0 0.0 0.00 0.00 0.00 66 1012.5
20210725121526 83 112 0.0 0.0 0.00 0.00 0.00 66 1012.5
20210725121221 84 112 0.0 0.0 0.00 0.00 0.00 66 1012.4
20210725120916 84 112 0.0 0.0 0.00 0.00 0.00 66 1012.4
20210725120610 84 112 0.0 0.0 0.00 0.00 0.00 65 1012.3
20210725120305 84 112 0.0 0.0 0.00 0.00 0.00 65 1012.2
20210725120000 84 112 0.0 0.0 0.00 0.00 0.00 65 1012.2
20210725115655 85 112 0.0 0.0 0.00 0.00 0.00 65 1012.1
20210725115350 85 112 0.0 0.0 0.00 0.00 0.00 65 1012.1
20210725115045 85 112 0.0 0.0 0.00 0.00 0.00 64 1012.0
20210725114740 85 112 0.0 0.0 0.00 0.00 0.00 64 1012.0
20210725114435 85 112 0.0 0.0 0.00 0.00 0.00 64 1012.1
20210725114129 86 112 0.0 0.0 0.00 0.00 0.00 64 1012.0
20210725113515 86 112 0.0 0.0 0.00 0.00 0.00 63 1012.0
20210725113210 86 112 0.0 0.0 0.00 0.00 0.00 63 1012.1
20210725112905 87 112 0.0 0.0 0.00 0.00 0.00 62 1012.1
20210725112600 87 112 0.0 0.0 0.00 0.00 0.00 62 1012.0
20210725112255 87 112 0.0 0.0 0.00 0.00 0.00 62 1012.0
20210725111950 87 112 0.0 0.0 0.00 0.00 0.00 62 1012.0
20210725111645 88 112 0.0 1.0 0.00 0.00 0.00 61 1011.9
20210725110729 88 112 0.0 0.0 0.00 0.00 0.00 60 1011.9
20210725110424 89 112 0.0 1.0 0.00 0.00 0.00 60 1011.7
20210725110119 89 112 0.0 1.0 0.00 0.00 0.00 60 1011.8
20210725105814 89 112 0.0 0.0 0.00 0.00 0.00 59 1011.7
20210725105509 89 112 0.0 0.0 0.00 0.00 0.00 59 1011.7
20210725105204 90 112 0.0 0.0 0.00 0.00 0.00 59 1011.7
20210725104859 90 112 0.0 0.0 0.00 0.00 0.00 59 1011.8
20210725104554 90 112 0.0 0.0 0.00 0.00 0.00 59 1011.8
20210725104249 90 112 0.0 1.0 0.00 0.00 0.00 58 1011.9
20210725103943 91 112 0.0 1.0 0.00 0.00 0.00 58 1011.9
20210725103638 91 112 0.0 1.0 0.00 0.00 0.00 58 1011.8
20210725103333 91 112 1.0 1.0 0.00 0.00 0.00 58 1011.8
20210725103028 91 112 0.0 1.0 0.00 0.00 0.00 57 1011.8
20210725102723 92 112 0.0 1.0 0.00 0.00 0.00 57 1011.7
20210725102418 92 112 0.0 1.0 0.00 0.00 0.00 57 1011.7
20210725102113 92 112 1.0 1.0 0.00 0.00 0.00 57 1011.7
20210725101808 92 112 1.0 1.0 0.00 0.00 0.00 56 1011.6
20210725101502 93 112 1.0 1.0 0.00 0.00 0.00 56 1011.7
20210725101157 93 112 1.0 1.0 0.00 0.00 0.00 55 1011.6
20210725100852 93 112 1.0 1.0 0.00 0.00 0.00 55 1011.7
20210725100546 93 112 0.0 1.0 0.00 0.00 0.00 55 1011.7
20210725100241 94 112 0.0 1.0 0.00 0.00 0.00 55 1011.7
20210725095936 94 112 0.0 1.0 0.00 0.00 0.00 54 1011.6
20210725095631 94 112 0.0 1.0 0.00 0.00 0.00 54 1011.5
20210725095326 95 112 0.0 1.0 0.00 0.00 0.00 54 1011.6
20210725095021 95 112 0.0 1.0 0.00 0.00 0.00 53 1011.5
20210725094716 95 112 0.0 1.0 0.00 0.00 0.00 53 1011.5
20210725094410 96 112 1.0 2.0 0.00 0.00 0.00 53 1011.4
20210725094105 96 112 1.0 2.0 0.00 0.00 0.00 53 1011.3
20210725093800 96 112 0.0 1.0 0.00 0.00 0.00 53 1011.4
20210725093459 97 112 0.0 4.0 0.00 0.00 0.00 53 1011.4
20210725093150 97 112 1.0 4.0 0.00 0.00 0.00 53 1011.2
20210725092845 97 112 0.0 1.0 0.00 0.00 0.00 53 1011.2
20210725092540 98 112 0.0 1.0 0.00 0.00 0.00 52 1011.2
20210725092235 98 112 1.0 4.0 0.00 0.00 0.00 52 1011.2
20210725091930 98 112 1.0 4.0 0.00 0.00 0.00 52 1011.1
20210725091624 98 112 2.0 3.0 0.00 0.00 0.00 52 1011.1
20210725091319 98 112 0.0 1.0 0.00 0.00 0.00 53 1011.0
20210725091014 98 112 0.0 2.0 0.00 0.00 0.00 53 1011.1
20210725090709 98 112 0.0 1.0 0.00 0.00 0.00 53 1011.0
20210725090404 98 112 0.0 1.0 0.00 0.00 0.00 54 1011.1
20210725090059 97 112 0.0 2.0 0.00 0.00 0.00 54 1011.1
20210725085754 97 112 0.0 2.0 0.00 0.00 0.00 55 1011.0
20210725085449 97 112 0.0 1.0 0.00 0.00 0.00 55 1011.0
20210725085143 96 112 1.0 1.0 0.00 0.00 0.00 56 1011.1
20210725084838 96 112 0.0 3.0 0.00 0.00 0.00 56 1011.1
20210725084534 95 112 1.0 2.0 0.00 0.00 0.00 57 1011.0
20210725083920 94 112 0.0 2.0 0.00 0.00 0.00 57 1011.1
20210725083614 94 112 1.0 2.0 0.00 0.00 0.00 57 1011.1
20210725083309 94 112 0.0 1.0 0.00 0.00 0.00 57 1011.2
20210725083004 94 112 0.0 1.0 0.00 0.00 0.00 56 1011.2
20210725082659 94 112 0.0 1.0 0.00 0.00 0.00 56 1011.2
20210725082353 94 112 0.0 2.0 0.00 0.00 0.00 56 1011.1
20210725082048 94 112 1.0 1.0 0.00 0.00 0.00 56 1011.1
20210725081743 94 112 1.0 1.0 0.00 0.00 0.00 56 1011.1
20210725081438 94 112 0.0 1.0 0.00 0.00 0.00 56 1011.2
20210725081133 94 112 0.0 2.0 0.00 0.00 0.00 56 1011.2
20210725080828 94 112 1.0 1.0 0.00 0.00 0.00 56 1011.1
20210725080523 94 112 0.0 2.0 0.00 0.00 0.00 56 1011.1
20210725080218 94 112 1.0 1.0 0.00 0.00 0.00 56 1011.1
20210725075913 94 112 0.0 2.0 0.00 0.00 0.00 56 1011.1
20210725075608 94 112 2.0 3.0 0.00 0.00 0.00 56 1011.1
20210725075305 94 112 2.0 3.0 0.00 0.00 0.00 56 1011.1
20210725074957 94 112 0.0 2.0 0.00 0.00 0.00 56 1011.2
20210725074652 94 112 0.0 2.0 0.00 0.00 0.00 56 1011.3
20210725074347 94 112 1.0 3.0 0.00 0.00 0.00 56 1011.3
20210725074042 94 112 0.0 2.0 0.00 0.00 0.00 56 1011.3
20210725073737 94 112 2.0 2.0 0.00 0.00 0.00 56 1011.3
20210725073432 94 112 1.0 2.0 0.00 0.00 0.00 56 1011.4
20210725073127 94 112 1.0 4.0 0.00 0.00 0.00 55 1011.4
20210725072822 94 112 1.0 4.0 0.00 0.00 0.00 56 1011.4
20210725072516 94 112 1.0 4.0 0.00 0.00 0.00 55 1011.4
20210725072211 94 112 0.0 4.0 0.00 0.00 0.00 55 1011.5
20210725071906 94 112 1.0 2.0 0.00 0.00 0.00 55 1011.6
20210725071601 94 112 1.0 2.0 0.00 0.00 0.00 55 1011.7
20210725071256 94 112 2.0 2.0 0.00 0.00 0.00 55 1011.7
20210725070951 94 112 0.0 1.0 0.00 0.00 0.00 55 1011.8
20210725070646 94 112 1.0 3.0 0.00 0.00 0.00 55 1011.7
20210725070340 94 112 1.0 2.0 0.00 0.00 0.00 55 1011.8
20210725070035 94 112 1.0 2.0 0.00 0.00 0.00 55 1012.0
20210725065730 94 112 0.0 1.0 0.00 0.00 0.00 54 1012.0
20210725065424 94 112 0.0 1.0 0.00 0.00 0.00 54 1012.0
20210725065119 95 112 0.0 4.0 0.00 0.00 0.00 54 1012.0
20210725064814 95 112 1.0 3.0 0.00 0.00 0.00 53 1012.0
20210725064509 95 112 0.0 3.0 0.00 0.00 0.00 53 1012.0
20210725064204 95 112 1.0 3.0 0.00 0.00 0.00 53 1012.2
20210725063859 96 112 1.0 3.0 0.00 0.00 0.00 53 1012.2
20210725063554 96 112 2.0 2.0 0.00 0.00 0.00 53 1012.3
20210725063249 96 112 0.0 2.0 0.00 0.00 0.00 52 1012.3
20210725062943 97 112 1.0 2.0 0.00 0.00 0.00 52 1012.3
20210725062638 97 112 0.0 3.0 0.00 0.00 0.00 52 1012.4
20210725062333 97 112 1.0 3.0 0.00 0.00 0.00 52 1012.4
20210725062028 98 112 0.0 2.0 0.00 0.00 0.00 51 1012.5
20210725061723 98 112 0.0 3.0 0.00 0.00 0.00 51 1012.4
20210725061418 99 112 1.0 3.0 0.00 0.00 0.00 51 1012.4
20210725061113 99 112 1.0 7.0 0.00 0.00 0.00 51 1012.4
20210725060808 99 112 0.0 4.0 0.00 0.00 0.00 50 1012.4
20210725060503 99 112 1.0 2.0 0.00 0.00 0.00 50 1012.5
20210725060157 100 112 1.0 5.0 0.00 0.00 0.00 50 1012.5
20210725055852 100 112 1.0 4.0 0.00 0.00 0.00 50 1012.6
20210725055547 100 112 1.0 2.0 0.00 0.00 0.00 50 1012.7
20210725055242 100 112 0.0 5.0 0.00 0.00 0.00 50 1012.7
20210725054937 101 112 4.0 5.0 0.00 0.00 0.00 50 1012.7
20210725054632 101 112 0.0 3.0 0.00 0.00 0.00 50 1012.7
20210725054327 101 112 1.0 7.0 0.00 0.00 0.00 50 1012.8
20210725054022 101 112 7.0 7.0 0.00 0.00 0.00 50 1013.0
20210725053717 101 112 4.0 4.0 0.00 0.00 0.00 50 1012.8
20210725053411 101 112 2.0 7.0 0.00 0.00 0.00 51 1012.9
20210725053106 101 112 0.0 3.0 0.00 0.00 0.00 51 1013.0
20210725052800 101 112 1.0 4.0 0.00 0.00 0.00 52 1013.0
20210725052455 101 112 2.0 3.0 0.00 0.00 0.00 52 1013.0
20210725052150 100 112 1.0 3.0 0.00 0.00 0.00 52 1013.0
20210725051845 100 112 2.0 3.0 0.00 0.00 0.00 53 1012.9
20210725051540 100 112 1.0 2.0 0.00 0.00 0.00 53 1013.1
20210725051235 100 112 1.0 3.0 0.00 0.00 0.00 54 1013.1
20210725050930 99 112 1.0 3.0 0.00 0.00 0.00 54 1013.0
20210725050624 99 112 1.0 2.0 0.00 0.00 0.00 55 1013.1
20210725050319 99 112 1.0 4.0 0.00 0.00 0.00 56 1013.0
20210725050014 99 112 1.0 9.0 0.00 0.00 0.00 56 1013.0
20210725045709 98 112 3.0 9.0 0.00 0.00 0.00 58 1013.0
20210725045404 97 112 2.0 6.0 0.00 0.00 0.00 58 1013.1
20210725045059 97 112 1.0 3.0 0.00 0.00 0.00 60 1013.1
20210725044754 96 112 2.0 3.0 0.00 0.00 0.00 61 1013.1
20210725044449 95 112 1.0 3.0 0.00 0.00 0.00 62 1013.1
20210725044144 95 112 0.0 3.0 0.00 0.00 0.00 63 1013.2
20210725043838 94 112 1.0 3.0 0.00 0.00 0.00 64 1013.2
20210725043533 93 112 1.0 2.0 0.00 0.00 0.00 64 1013.3
20210725043228 93 112 1.0 4.0 0.00 0.00 0.00 65 1013.4
20210725042923 92 112 2.0 4.0 0.00 0.00 0.00 66 1013.5
20210725042618 92 112 1.0 2.0 0.00 0.00 0.00 67 1013.5
20210725042313 91 112 1.0 2.0 0.00 0.00 0.00 68 1013.6
20210725042008 90 112 0.0 2.0 0.00 0.00 0.00 68 1013.6
20210725041703 90 112 2.0 2.0 0.00 0.00 0.00 68 1013.6
20210725041358 90 112 0.0 1.0 0.00 0.00 0.00 69 1013.7
20210725041052 89 112 0.0 1.0 0.00 0.00 0.00 69 1013.7
20210725040747 89 112 1.0 3.0 0.00 0.00 0.00 69 1013.9
20210725040442 89 112 1.0 2.0 0.00 0.00 0.00 69 1013.8
20210725040137 89 112 0.0 1.0 0.00 0.00 0.00 70 1014.0
20210725035832 89 112 1.0 1.0 0.00 0.00 0.00 70 1014.0
20210725035526 89 112 0.0 1.0 0.00 0.00 0.00 70 1013.9
20210725035221 88 112 0.0 0.0 0.00 0.00 0.00 70 1013.9
20210725034916 88 112 0.0 1.0 0.00 0.00 0.00 70 1014.0
20210725034611 88 112 1.0 1.0 0.00 0.00 0.00 70 1014.0
20210725034305 88 112 1.0 2.0 0.00 0.00 0.00 70 1014.0
20210725034000 88 112 1.0 2.0 0.00 0.00 0.00 70 1013.8
20210725033655 88 112 0.0 1.0 0.00 0.00 0.00 70 1013.9
20210725033350 88 112 0.0 1.0 0.00 0.00 0.00 71 1014.0